H-2A R/B

Last updated on Mon Jun 22 2026 00:02:14 GMT+0000 (Coordinated Universal Time)

1 38341U 12025E 26171.43489571 .00001559 00000+0 14369-3 0 9992 2 38341 98.4832 146.8481 0043436 338.4525 21.4864 14.95733305763570
UTC large
Height (km)
Speed (km/s)
/
Latitude / Longitude
Inclination (degrees)
Orbital Period (minutes)
Azimuth
Elevation
Range (km)
Doppler Factor

Next 0 passes for location: London (51.5072 / 0.1276)

No passes found over London.
H-2A R/B